SCP
-0 0 0 0 -0 0 0 0 1 0 0 0 0 0 0 0 0 0 1 0 0 0 0 0 -0 -0 -0 0 -0 -0 -0 -0 -0 -0 -0 0 0 0 0 0 0 0 0
0 -0 0 0 0 0 1 0 0 0 0 0 0 0 0 0 -0 0 0 0 0 0 0 0 0 0 -0 -0 0 0 0 0 0 -0 -0 -0 0 0 0 0 0 0 0
0 0 -0 -0 -0 0 1 0 -0 0 0 0 0 0 0 -0 -0 0 0 0 1 0 0 0 0 -0 0 -0 -0 0 0 0 0 -0 -0 -0 -0 -0 -0 0 0 -0 -0
0 0 0 -0 0 0 1 1 1 0 0 0 0 0 0 0 -0 0 0 0 0 1 0 0 0 0 -0 -0 -0 -0 0 0 -0 -0 -0 -0 -0 -0 -0 0 -0 -0 -0
0 1 0 0 -0 0 0 1 0 0 0 0 1 0 0 0 0 0 0 0 0 0 1 0 0 0 -0 -0 0 -0 -0 -0 -0 0 -0 -0 -0 -0 0 0 -0 -0 0
1 1 1 1 0 0 0 -0 0 1 0 0 0 0 1 0 0 0 0 0 0 0 0 1 1 1 0 -0 -0 -0 -0 -0 -0 -0 -0 -0 -0 -0 0 0 0 0 0
1 1 1 0 0 0 0 0 -0 -0 -0 -0 -0 -0 -0 -0 0 0 0 0 0 0 0 1 1 1 1 -0 -0 -0 -0 -0 -0 -0 -0 -0 -0 -0 -0 0 0 0 0
1 2 1 1 1 0 0 0 0 -0 0 0 0 -0 0 -0 0 0 0 0 0 0 0 1 1 1 1 1 0 -0 -0 -0 -0 -0 -0 -0 -0 -0 -0 0 0 0 0
1 2 2 2 1 1 1 1 0 0 0 0 0 0 1 0 0 0 0 0 0 1 1 1 1 0 1 0 1 1 -0 -0 -0 -0 -0 -0 -0 0 0 0 0 0 0
2 3 2 2 2 1 1 1 1 1 1 0 1 1 0 1 0 -0 -0 0 1 2 3 2 1 1 1 1 1 1 1 0 0 0 -0 -0 0 0 0 0 0 0 0
3 3 3 3 4 3 2 1 1 1 1 1 1 1 0 0 0 0 -0 -0 -0 1 2 2 1 1 1 1 2 1 1 1 0 0 0 0 0 0 0 0 0 0 0
1 1 2 2 2 2 2 2 1 1 1 1 1 1 1 1 0 0 0 0 0 -0 1 1 1 1 0 0 1 1 1 1 1 1 0 0 0 0 0 0 0 0 0
0 0 2 1 1 1 1 1 1 1 1 1 1 1 2 1 1 1 1 1 1 0 0 -0 1 2 1 1 0 1 1 1 0 0 0 0 0 1 1 0 0 0 0
1 1 1 1 1 1 1 1 0 0 0 0 1 1 1 1 2 1 1 1 1 0 0 -0 0 0 1 1 1 1 1 0 0 0 0 0 0 0 0 0 0 0 0
0 0 1 1 0 1 1 1 0 0 0 0 0 0 1 1 1 1 1 2 1 1 0 0 -0 -0 0 1 1 1 1 1 0 0 0 0 0 0 0 0 0 0 0
1 1 1 1 1 0 0 1 0 0 0 0 0 0 0 0 0 0 1 1 1 1 0 0 0 0 0 0 0 1 2 2 0 0 0 0 0 0 0 0 0 0 0
2 1 1 1 1 1 0 0 0 0 0 0 0 0 0 0 0 0 0 1 1 2 0 0 0 0 -0 -0 0 0 1 1 1 0 0 0 0 0 0 0 0 0 0
1 1 1 1 1 1 0 0 0 0 0 0 0 0 0 0 0 0 0 0 1 1 2 1 1 0 0 0 0 -0 0 0 1 0 0 0 0 0 0 0 0 0 0
1 1 1 1 0 0 0 0 0 0 0 0 0 0 0 0 0 0 0 0 1 1 1 1 1 0 0 0 0 0 0 -0 -0 0 0 0 0 0 0 0 0 0 0
1 1 1 1 1 0 0 0 0 0 0 0 0 0 0 0 0 0 0 0 0 0 1 1 1 1 1 1 1 0 0 0 0 -0 0 0 0 0 0 0 0 0 0
1 1 1 0 0 0 0 0 0 0 0 0 0 0 0 0 0 0 0 0 0 0 1 1 1 1 2 1 1 1 1 0 0 0 0 0 0 0 0 0 0 0 0
1 1 0 0 0 0 0 0 0 0 0 0 0 0 0 0 0 0 0 0 0 0 0 1 1 1 1 1 1 1 1 1 1 0 0 0 0 0 0 0 0 0 0
1 1 1 0 0 0 0 0 0 0 0 0 0 0 0 0 0 0 0 0 0 0 0 0 0 1 1 1 1 0 1 0 0 0 0 0 0 0 0 1 0 0 0
1 1 0 0 0 0 0 -0 0 0 -0 0 0 0 0 0 0 0 0 0 0 0 0 0 0 0 1 1 1 1 1 1 0 1 1 0 0 0 -0 -0 0 0 0
1 0 0 0 0 0 0 0 0 0 0 0 0 0 0 0 -0 0 0 0 0 0 0 0 0 0 0 0 0 1 0 0 0 0 0 1 0 0 0 0 0 -0 0
1 0 0 0 0 0 0 0 0 -0 0 0 0 0 0 -0 0 -0 0 0 0 0 0 0 0 0 0 0 0 0 0 0 0 0 0 0 0 0 0 0 0 0 0
Wind_Speed_500mb
13 19 20 23 26 27 12 16 23 25 27 26 21 22 26 33 26 17 26 27 28 14 15 19 15 13 14 13 13 15 16 17 17 17 16 15 15 14 14 16 16 17 16
20 23 24 29 23 20 19 21 16 25 30 18 25 20 20 29 35 27 21 26 25 19 17 21 24 19 15 17 18 17 17 17 17 18 17 16 16 16 15 15 15 16 18
25 23 30 29 28 24 29 33 34 40 37 28 29 23 28 28 28 36 36 38 37 30 26 28 25 23 19 18 21 22 21 19 18 18 17 17 17 15 15 15 15 15 17
34 32 32 27 30 35 35 33 34 39 40 31 29 29 25 30 30 33 35 43 44 38 34 32 34 28 26 25 25 24 27 26 23 22 20 18 19 18 18 18 18 18 19
34 35 37 31 30 37 34 42 42 47 44 43 32 36 46 41 36 41 43 41 41 46 47 48 37 38 33 32 31 31 29 29 28 27 25 23 23 22 21 21 20 20 19
32 37 40 36 37 41 38 43 47 49 54 52 29 37 38 44 48 42 46 49 52 51 51 49 49 48 43 41 41 39 41 36 33 32 31 29 25 24 22 20 19 19 19
34 36 43 46 45 44 50 40 42 52 60 58 51 58 59 57 58 61 48 51 53 52 54 58 52 53 55 55 45 43 39 42 43 39 36 34 32 29 27 26 26 27 28
37 43 43 43 43 45 49 52 55 54 58 54 50 52 58 67 59 66 65 59 64 59 56 60 61 62 63 58 56 48 50 46 45 48 43 39 38 38 36 34 36 36 38
24 40 44 42 41 42 46 46 49 47 56 56 57 47 23 22 40 45 64 65 67 64 59 55 60 62 64 69 64 65 53 53 53 51 52 48 46 46 43 39 38 37 35
37 41 41 46 45 43 41 43 44 51 49 53 55 60 63 64 58 68 67 46 74 70 64 61 59 61 67 69 69 67 67 68 62 63 58 57 58 53 52 46 42 41 39
23 32 40 37 37 45 45 44 47 51 51 56 55 57 60 63 78 80 72 79 78 52 71 70 55 62 66 61 68 70 66 69 74 68 62 57 56 58 62 56 49 46 45
47 32 43 49 55 57 55 53 55 60 60 56 59 62 61 59 64 71 75 84 92 78 54 65 62 55 47 69 69 71 68 64 62 69 73 64 58 58 61 64 58 52 50
55 47 46 50 56 55 52 51 51 52 54 56 56 61 64 69 68 69 73 89 87 80 70 81 72 81 67 63 59 61 64 55 55 56 56 57 58 55 59 65 64 57 53
43 40 47 52 57 54 45 47 50 51 50 52 58 63 65 69 71 75 74 72 81 82 73 118 42 77 80 66 70 61 57 51 51 53 56 60 63 57 57 60 62 60 57
48 45 47 49 50 45 46 49 52 53 53 56 58 57 61 66 68 70 70 80 80 68 63 82 110 79 53 72 61 63 63 65 58 55 57 59 61 58 56 56 58 60 58
50 51 50 46 46 46 46 49 54 57 62 64 67 71 74 79 83 83 81 71 78 84 76 77 81 100 92 71 33 71 69 68 65 60 57 63 61 59 56 58 59 61 62
46 47 45 43 49 49 55 58 60 64 75 87 79 82 91 95 97 90 83 78 80 78 83 83 86 92 94 91 55 53 57 61 69 62 59 58 61 61 60 62 62 64 64
42 39 40 47 53 54 55 57 65 83 77 84 90 90 108 110 107 99 91 87 86 80 83 91 81 72 70 70 106 82 55 57 75 62 51 46 52 54 56 63 67 69 65
37 39 43 48 52 59 56 54 72 65 79 96 109 116 127 119 120 112 108 93 85 84 80 86 85 80 75 80 87 96 82 106 96 43 45 45 54 61 63 62 62 64 66
36 44 46 50 53 55 53 61 62 92 99 109 110 115 119 118 101 87 86 94 92 83 78 78 88 85 78 72 77 82 82 84 82 61 56 72 74 68 73 74 70 69 68
34 44 46 48 52 47 51 62 87 99 107 120 114 115 113 99 85 79 82 90 91 87 78 81 81 77 74 66 66 59 52 51 63 68 68 68 66 62 69 74 67 60 64
35 39 43 47 48 47 68 81 93 105 123 124 115 112 94 83 79 78 82 86 91 88 72 76 82 75 71 64 53 43 43 34 44 42 52 69 70 82 77 73 76 62 51
33 38 41 46 46 59 68 89 99 111 125 104 103 83 70 73 75 64 61 65 69 81 84 76 77 77 66 56 52 51 53 58 62 61 62 69 51 63 63 63 61 56 54
31 31 41 43 52 67 71 98 100 108 136 82 69 59 59 64 52 43 54 53 56 68 78 77 75 67 63 51 39 53 55 55 55 62 60 62 58 65 71 66 60 55 50
24 31 37 49 53 73 71 93 106 124 113 86 56 44 49 45 29 36 36 44 45 54 58 67 72 66 56 55 52 61 67 60 63 61 52 50 51 54 58 66 64 67 59
24 27 35 35 44 67 71 85 98 103 114 106 62 41 38 33 28 28 30 36 40 44 42 45 54 62 60 59 57 60 64 67 62 64 57 48 55 44 44 63 71 60 63
Wind_Direction_500mb
246 263 279 276 243 295 329 282 257 256 273 276 240 232 231 211 222 220 260 278 263 271 279 266 266 273 251 246 242 242 238 236 236 239 239 236 237 236 236 237 240 243 245
240 242 271 289 293 290 278 282 294 267 272 283 279 248 237 229 225 218 246 270 264 255 273 263 266 264 253 246 247 244 245 241 239 238 240 242 239 237 237 238 240 247 248
294 260 255 254 266 283 281 288 273 277 273 267 266 270 249 240 242 228 227 248 265 249 261 258 258 263 259 261 252 248 247 244 243 240 234 232 234 236 236 239 240 245 252
289 285 266 268 283 290 284 281 278 281 286 280 279 280 290 250 239 248 250 245 244 259 254 255 251 255 260 274 262 255 248 244 238 237 238 239 243 242 242 244 247 248 249
285 285 289 275 273 281 281 288 287 288 282 280 277 284 279 277 267 239 250 253 252 239 249 250 248 247 251 259 262 260 254 246 243 239 240 245 249 246 247 249 248 249 252
269 277 280 282 276 269 274 272 282 288 280 287 283 271 283 281 275 279 242 240 250 252 248 248 246 248 250 257 266 260 254 252 246 243 242 242 246 243 240 241 244 248 256
299 284 280 275 271 275 270 283 267 269 266 267 277 275 270 265 272 276 265 248 251 248 246 249 249 245 252 256 250 253 253 254 251 245 242 242 238 237 237 243 249 256 262
294 296 313 301 289 281 281 273 283 273 268 269 269 275 274 277 259 258 267 249 245 247 245 246 250 244 247 248 248 252 249 251 254 246 241 242 241 238 240 249 254 259 265
313 311 310 313 302 295 290 285 282 280 278 276 268 253 266 268 290 284 271 259 245 245 244 244 250 251 248 249 251 248 248 250 251 248 245 244 244 241 243 248 253 258 266
326 316 306 312 309 304 287 288 285 284 284 279 278 269 259 263 278 291 275 289 253 242 241 246 254 251 252 252 254 250 247 245 247 251 251 250 245 245 245 247 251 255 263
310 318 312 299 292 296 298 292 295 290 285 283 279 278 273 270 259 254 273 275 265 266 254 260 259 249 244 251 255 254 255 254 248 245 247 245 248 249 244 246 249 256 263
309 300 285 283 285 291 291 284 282 284 287 284 281 277 270 262 259 256 256 266 267 263 261 259 250 257 252 242 245 250 254 257 256 250 244 247 249 250 246 245 248 254 263
312 308 295 296 296 295 296 294 292 289 288 284 288 286 279 273 269 266 264 263 260 267 267 263 256 260 258 251 249 248 247 254 258 245 241 244 245 253 249 245 246 252 260
312 296 292 294 296 300 304 302 300 297 294 288 284 280 285 281 278 272 266 267 263 257 268 290 268 253 250 250 248 246 245 250 258 256 256 253 249 255 253 246 244 250 256
308 305 302 302 305 305 301 300 300 301 299 298 297 292 288 287 285 278 269 262 261 258 250 257 267 248 253 244 239 238 244 252 255 254 255 258 254 254 250 245 244 250 257
314 312 311 312 312 310 309 303 301 300 299 298 297 292 289 288 287 285 279 271 263 262 260 260 251 268 268 295 256 240 245 245 247 251 254 255 254 249 247 247 247 252 258
312 307 312 317 314 306 304 304 305 307 306 302 296 294 294 294 287 284 279 275 265 259 258 262 257 270 266 266 283 235 238 239 247 247 254 261 251 249 249 250 251 255 259
312 317 321 311 306 309 309 310 312 312 312 308 301 295 298 297 287 279 276 270 266 259 251 256 258 259 262 262 262 264 260 239 232 248 254 265 267 263 260 259 258 257 257
326 319 311 309 310 311 308 308 318 309 306 300 297 292 290 288 289 281 270 264 260 260 251 250 250 255 257 253 245 260 273 267 282 237 241 252 260 263 266 264 261 259 255
314 311 305 308 311 315 317 318 306 307 306 308 301 292 290 288 284 273 268 263 260 256 251 248 248 249 257 262 260 257 260 249 261 262 256 253 253 249 258 258 262 262 257
306 309 317 319 326 322 323 312 314 316 316 312 310 299 292 289 285 273 263 265 261 256 251 248 245 241 247 252 256 263 253 244 262 255 256 262 256 257 250 256 257 258 255
314 321 328 331 328 328 319 324 324 321 322 314 310 305 294 289 287 276 263 260 254 249 244 244 243 235 240 249 256 247 249 240 239 246 254 264 264 264 254 255 257 259 261
320 334 338 343 331 327 331 333 336 333 332 318 307 302 295 290 288 278 270 265 252 240 238 243 243 237 238 240 247 236 234 240 251 257 268 271 268 256 252 267 256 252 257
326 337 345 331 323 335 339 342 341 345 339 331 311 305 299 295 286 278 273 262 253 242 234 235 235 236 234 234 223 228 239 252 258 266 269 268 267 257 251 241 257 246 255
329 331 331 328 332 345 340 348 350 352 346 346 329 317 317 301 280 288 274 263 253 241 238 234 231 232 232 235 240 246 252 260 267 272 275 268 276 267 250 272 236 236 248
337 330 337 334 335 338 344 351 354 356 1 1 339 320 333 329 285 278 279 264 251 240 231 224 226 235 245 253 252 250 252 259 258 271 279 274 273 257 247 242 246 252 247
Wind_Speed_850mb
13 19 20 23 26 27 12 16 23 25 27 26 21 22 26 33 26 17 26 27 28 14 15 19 15 13 14 13 13 15 16 17 17 17 16 15 15 14 14 16 16 17 16
20 23 24 29 23 20 19 21 16 25 30 18 25 20 20 29 35 27 21 26 25 19 17 21 24 19 15 17 18 17 17 17 17 18 17 16 16 16 15 15 15 16 18
25 23 30 29 28 24 29 33 34 40 37 28 29 23 28 28 28 36 36 38 37 30 26 28 25 23 19 18 21 22 21 19 18 18 17 17 17 15 15 15 15 15 17
34 32 32 27 30 35 35 33 34 39 40 31 29 29 25 30 30 33 35 43 44 38 34 32 34 28 26 25 25 24 27 26 23 22 20 18 19 18 18 18 18 18 19
34 35 37 31 30 37 34 42 42 47 44 43 32 36 46 41 36 41 43 41 41 46 47 48 37 38 33 32 31 31 29 29 28 27 25 23 23 22 21 21 20 20 19
32 37 40 36 37 41 38 43 47 49 54 52 29 37 38 44 48 42 46 49 52 51 51 49 49 48 43 41 41 39 41 36 33 32 31 29 25 24 22 20 19 19 19
34 36 43 46 45 44 50 40 42 52 60 58 51 58 59 57 58 61 48 51 53 52 54 58 52 53 55 55 45 43 39 42 43 39 36 34 32 29 27 26 26 27 28
37 43 43 43 43 45 49 52 55 54 58 54 50 52 58 67 59 66 65 59 64 59 56 60 61 62 63 58 56 48 50 46 45 48 43 39 38 38 36 34 36 36 38
24 40 44 42 41 42 46 46 49 47 56 56 57 47 23 22 40 45 64 65 67 64 59 55 60 62 64 69 64 65 53 53 53 51 52 48 46 46 43 39 38 37 35
37 41 41 46 45 43 41 43 44 51 49 53 55 60 63 64 58 68 67 46 74 70 64 61 59 61 67 69 69 67 67 68 62 63 58 57 58 53 52 46 42 41 39
23 32 40 37 37 45 45 44 47 51 51 56 55 57 60 63 78 80 72 79 78 52 71 70 55 62 66 61 68 70 66 69 74 68 62 57 56 58 62 56 49 46 45
47 32 43 49 55 57 55 53 55 60 60 56 59 62 61 59 64 71 75 84 92 78 54 65 62 55 47 69 69 71 68 64 62 69 73 64 58 58 61 64 58 52 50
55 47 46 50 56 55 52 51 51 52 54 56 56 61 64 69 68 69 73 89 87 80 70 81 72 81 67 63 59 61 64 55 55 56 56 57 58 55 59 65 64 57 53
43 40 47 52 57 54 45 47 50 51 50 52 58 63 65 69 71 75 74 72 81 82 73 118 42 77 80 66 70 61 57 51 51 53 56 60 63 57 57 60 62 60 57
48 45 47 49 50 45 46 49 52 53 53 56 58 57 61 66 68 70 70 80 80 68 63 82 110 79 53 72 61 63 63 65 58 55 57 59 61 58 56 56 58 60 58
50 51 50 46 46 46 46 49 54 57 62 64 67 71 74 79 83 83 81 71 78 84 76 77 81 100 92 71 33 71 69 68 65 60 57 63 61 59 56 58 59 61 62
46 47 45 43 49 49 55 58 60 64 75 87 79 82 91 95 97 90 83 78 80 78 83 83 86 92 94 91 55 53 57 61 69 62 59 58 61 61 60 62 62 64 64
42 39 40 47 53 54 55 57 65 83 77 84 90 90 108 110 107 99 91 87 86 80 83 91 81 72 70 70 106 82 55 57 75 62 51 46 52 54 56 63 67 69 65
37 39 43 48 52 59 56 54 72 65 79 96 109 116 127 119 120 112 108 93 85 84 80 86 85 80 75 80 87 96 82 106 96 43 45 45 54 61 63 62 62 64 66
36 44 46 50 53 55 53 61 62 92 99 109 110 115 119 118 101 87 86 94 92 83 78 78 88 85 78 72 77 82 82 84 82 61 56 72 74 68 73 74 70 69 68
34 44 46 48 52 47 51 62 87 99 107 120 114 115 113 99 85 79 82 90 91 87 78 81 81 77 74 66 66 59 52 51 63 68 68 68 66 62 69 74 67 60 64
35 39 43 47 48 47 68 81 93 105 123 124 115 112 94 83 79 78 82 86 91 88 72 76 82 75 71 64 53 43 43 34 44 42 52 69 70 82 77 73 76 62 51
33 38 41 46 46 59 68 89 99 111 125 104 103 83 70 73 75 64 61 65 69 81 84 76 77 77 66 56 52 51 53 58 62 61 62 69 51 63 63 63 61 56 54
31 31 41 43 52 67 71 98 100 108 136 82 69 59 59 64 52 43 54 53 56 68 78 77 75 67 63 51 39 53 55 55 55 62 60 62 58 65 71 66 60 55 50
24 31 37 49 53 73 71 93 106 124 113 86 56 44 49 45 29 36 36 44 45 54 58 67 72 66 56 55 52 61 67 60 63 61 52 50 51 54 58 66 64 67 59
24 27 35 35 44 67 71 85 98 103 114 106 62 41 38 33 28 28 30 36 40 44 42 45 54 62 60 59 57 60 64 67 62 64 57 48 55 44 44 63 71 60 63
Wind_Direction_850mb
246 263 279 276 243 295 329 282 257 256 273 276 240 232 231 211 222 220 260 278 263 271 279 266 266 273 251 246 242 242 238 236 236 239 239 236 237 236 236 237 240 243 245
240 242 271 289 293 290 278 282 294 267 272 283 279 248 237 229 225 218 246 270 264 255 273 263 266 264 253 246 247 244 245 241 239 238 240 242 239 237 237 238 240 247 248
294 260 255 254 266 283 281 288 273 277 273 267 266 270 249 240 242 228 227 248 265 249 261 258 258 263 259 261 252 248 247 244 243 240 234 232 234 236 236 239 240 245 252
289 285 266 268 283 290 284 281 278 281 286 280 279 280 290 250 239 248 250 245 244 259 254 255 251 255 260 274 262 255 248 244 238 237 238 239 243 242 242 244 247 248 249
285 285 289 275 273 281 281 288 287 288 282 280 277 284 279 277 267 239 250 253 252 239 249 250 248 247 251 259 262 260 254 246 243 239 240 245 249 246 247 249 248 249 252
269 277 280 282 276 269 274 272 282 288 280 287 283 271 283 281 275 279 242 240 250 252 248 248 246 248 250 257 266 260 254 252 246 243 242 242 246 243 240 241 244 248 256
299 284 280 275 271 275 270 283 267 269 266 267 277 275 270 265 272 276 265 248 251 248 246 249 249 245 252 256 250 253 253 254 251 245 242 242 238 237 237 243 249 256 262
294 296 313 301 289 281 281 273 283 273 268 269 269 275 274 277 259 258 267 249 245 247 245 246 250 244 247 248 248 252 249 251 254 246 241 242 241 238 240 249 254 259 265
313 311 310 313 302 295 290 285 282 280 278 276 268 253 266 268 290 284 271 259 245 245 244 244 250 251 248 249 251 248 248 250 251 248 245 244 244 241 243 248 253 258 266
326 316 306 312 309 304 287 288 285 284 284 279 278 269 259 263 278 291 275 289 253 242 241 246 254 251 252 252 254 250 247 245 247 251 251 250 245 245 245 247 251 255 263
310 318 312 299 292 296 298 292 295 290 285 283 279 278 273 270 259 254 273 275 265 266 254 260 259 249 244 251 255 254 255 254 248 245 247 245 248 249 244 246 249 256 263
309 300 285 283 285 291 291 284 282 284 287 284 281 277 270 262 259 256 256 266 267 263 261 259 250 257 252 242 245 250 254 257 256 250 244 247 249 250 246 245 248 254 263
312 308 295 296 296 295 296 294 292 289 288 284 288 286 279 273 269 266 264 263 260 267 267 263 256 260 258 251 249 248 247 254 258 245 241 244 245 253 249 245 246 252 260
312 296 292 294 296 300 304 302 300 297 294 288 284 280 285 281 278 272 266 267 263 257 268 290 268 253 250 250 248 246 245 250 258 256 256 253 249 255 253 246 244 250 256
308 305 302 302 305 305 301 300 300 301 299 298 297 292 288 287 285 278 269 262 261 258 250 257 267 248 253 244 239 238 244 252 255 254 255 258 254 254 250 245 244 250 257
314 312 311 312 312 310 309 303 301 300 299 298 297 292 289 288 287 285 279 271 263 262 260 260 251 268 268 295 256 240 245 245 247 251 254 255 254 249 247 247 247 252 258
312 307 312 317 314 306 304 304 305 307 306 302 296 294 294 294 287 284 279 275 265 259 258 262 257 270 266 266 283 235 238 239 247 247 254 261 251 249 249 250 251 255 259
312 317 321 311 306 309 309 310 312 312 312 308 301 295 298 297 287 279 276 270 266 259 251 256 258 259 262 262 262 264 260 239 232 248 254 265 267 263 260 259 258 257 257
326 319 311 309 310 311 308 308 318 309 306 300 297 292 290 288 289 281 270 264 260 260 251 250 250 255 257 253 245 260 273 267 282 237 241 252 260 263 266 264 261 259 255
314 311 305 308 311 315 317 318 306 307 306 308 301 292 290 288 284 273 268 263 260 256 251 248 248 249 257 262 260 257 260 249 261 262 256 253 253 249 258 258 262 262 257
306 309 317 319 326 322 323 312 314 316 316 312 310 299 292 289 285 273 263 265 261 256 251 248 245 241 247 252 256 263 253 244 262 255 256 262 256 257 250 256 257 258 255
314 321 328 331 328 328 319 324 324 321 322 314 310 305 294 289 287 276 263 260 254 249 244 244 243 235 240 249 256 247 249 240 239 246 254 264 264 264 254 255 257 259 261
320 334 338 343 331 327 331 333 336 333 332 318 307 302 295 290 288 278 270 265 252 240 238 243 243 237 238 240 247 236 234 240 251 257 268 271 268 256 252 267 256 252 257
326 337 345 331 323 335 339 342 341 345 339 331 311 305 299 295 286 278 273 262 253 242 234 235 235 236 234 234 223 228 239 252 258 266 269 268 267 257 251 241 257 246 255
329 331 331 328 332 345 340 348 350 352 346 346 329 317 317 301 280 288 274 263 253 241 238 234 231 232 232 235 240 246 252 260 267 272 275 268 276 267 250 272 236 236 248
337 330 337 334 335 338 344 351 354 356 1 1 339 320 333 329 285 278 279 264 251 240 231 224 226 235 245 253 252 250 252 259 258 271 279 274 273 257 247 242 246 252 247